Weather in Polozaozerye

Russia / Tyumen Oblast     55°53′16″N   68°17′28″E
temp.,
°C
wind,
m/s
gust,
m/s
humid.,
%
clouds,
%
prec.,
mm/h
press.,
hPa
HPBL,
m
10 august, wed
wed1023:00+18nne357399 0.1 101772
02:00+17nne348744 0.8 101662
05:00+16nne348720 1.2 101651
08:00+21ne357319 0.0 1017253
11:00+26nne465015 0.0 10161142
14:00+28nne674016 0.0 10162566
17:00+28nne573728 0.0 10152142
20:00+19s2378100 0.4 101643
11 august, thu
thu1123:00+18nw018151 1.5 101611
02:00+16ne358627 0.0 101763
05:00+15ne36945 0.0 1017107
08:00+19ne457622 0.0 1018281
11:00+25ne44515 0.0 1017977
14:00+27ne33429 0.0 10171600
17:00+27nne33435 0.0 10161602
20:00+21ene22655 0.0 101614
12 august, fri
fri1223:00+18ese227569 0.4 101615
02:00+17sse46815 0.1 101589
05:00+16sw349093 1.1 101468
08:00+19w4684100 0.8 1014293
11:00+19wnw5690100 1.3 1014552
14:00+22w685185 0.2 10131535
17:00+19nw6105781 0.2 10131055
20:00+16wnw49685 0.0 1013212
13 august, sat
sat1323:00+14w4881100 0.0 1013161
02:00+14w4117649 0.0 1012248
05:00+14w4117382 0.0 1012249
08:00+17w5106461 0.0 1011424
11:00+23w8115091 0.0 10101460
14:00+21wnw8126424 0.4 10081172
17:00+23wnw9144898 1.1 10082348
20:00+17nw714600 0.0 10101272
14 august, sun
sun1423:00+13nw513684 0.0 1012573
02:00+11nw513845 0.0 1013421
05:00+10wnw512855 0.0 1014343
08:00+14nw711590 0.0 1015690
11:00+18nw811450 0.0 10151668
14:00+19nw8114092 0.0 10152295
17:00+16nnw6115097 0.0 10161728
20:00+13nw611615 0.0 1017597